1508569200.87,22598,14.25,73830.5,1.65,-2.55,-2.67,0,*7A
1508569202.14,22599,14.25,73834.8,1.67,-2.75,-2.67,0,*7B
1508569203.35,22600,14.19,73830.3,1.69,-2.83,-2.51,0,*7A
1508569204.59,22601,14.19,73826.0,1.67,-2.87,-2.51,0,*71
1508569205.81,22602,14.25,73820.5,1.67,-2.79,-2.39,0,*7D
1508569207.05,22603,14.19,73808.8,1.67,-2.75,-2.31,0,*78
1508569208.26,22604,14.25,73806.8,1.67,-2.87,-2.27,0,*75
1508569209.49,22605,14.19,73792.5,1.67,-2.79,-2.03,0,*73
1508569210.73,22606,14.25,73804.8,1.67,-2.79,-1.99,0,*70
1508569212.0,22607,14.25,73822.8,1.67,-2.75,-1.91,0,*75
1508569213.24,22608,14.19,73822.3,1.67,-2.51,-1.79,0,*7A
1508569214.42,22609,14.25,73816.0,1.69,-2.27,-1.71,0,*7C
1508569215.66,22610,14.25,73832.0,1.67,-2.11,-1.55,0,*79
1508569216.88,22611,14.19,73818.3,1.67,-2.23,-1.67,0,*78
1508569218.09,22612,14.25,73826.3,1.67,-2.27,-1.51,0,*7A
1508569219.3,22613,14.25,73830.0,1.67,-2.43,-1.63,0,*78
1508569220.48,22614,14.25,73832.0,1.69,-2.39,-1.33,0,*79
1508569221.68,22615,14.25,73834.3,1.69,-2.23,-1.13,0,*71
1508569222.92,22616,14.25,73832.8,1.69,-2.07,-1.01,0,*77
1508569224.13,22617,14.19,73826.8,1.69,-1.87,-0.77,0,*4D
1508569225.31,22618,14.25,73824.3,1.69,-1.63,-0.65,0,*4B
1508569226.52,22619,14.25,73830.0,1.69,-1.43,-0.57,0,*49
1508569227.73,22620,14.19,73828.0,1.69,-1.43,-0.61,0,*46
1508569228.94,22621,14.19,73836.8,1.69,-1.43,-0.57,0,*42
1508569230.12,22622,14.19,73832.0,1.69,-1.25,-0.45,0,*42
1508569231.35,22623,14.19,73836.0,1.69,-1.01,-0.27,0,*41
1508569232.58,22624,14.25,73838.0,1.69,-0.89,-0.27,0,*77
1508569233.81,22625,14.25,73838.8,1.71,-0.77,-0.23,0,*7A
1508569235.02,22626,14.19,73834.5,1.71,-0.65,-0.11,0,*7B
1508569236.24,22627,14.25,73832.3,1.71,-0.57,-0.15,0,*7F
1508569237.46,22628,14.25,73830.3,1.71,-0.61,-0.23,0,*70
1508569238.66,22629,14.25,73820.3,1.71,-0.61,-0.45,0,*71
1508569239.89,22630,14.25,73816.5,1.71,-0.49,-0.27,0,*77
1508569241.11,22631,14.19,73816.8,1.71,-0.33,-0.23,0,*7F
1508569242.34,22632,14.25,73820.0,1.71,-0.37,-0.27,0,*7C
1508569243.55,22633,14.25,73830.8,1.71,-0.37,-0.45,0,*79
1508569244.78,22634,14.25,73824.5,1.71,-0.27,-0.37,0,*7A
1508569245.99,22635,14.25,73830.5,1.71,-0.37,-0.49,0,*73
1508569247.2,22636,14.25,73836.5,1.71,-0.37,-0.49,0,*70
1508569248.41,22637,14.25,73834.5,1.71,-0.45,-0.73,0,*7D
1508569249.62,22638,14.19,73832.5,1.71,-0.45,-0.73,0,*72
1508569250.84,22639,14.25,73832.0,1.71,-0.49,-0.85,0,*76
1508569252.07,22640,14.25,73838.0,1.71,-0.45,-0.89,0,*78
1508569253.29,22641,14.25,73834.5,1.73,-0.53,-0.93,0,*77
1508569254.53,22642,14.19,73828.0,1.73,-0.57,-1.05,0,*4E
1508569255.75,22643,14.19,73834.5,1.71,-0.73,-1.21,0,*4D
1508569257.0,22644,14.25,73846.3,1.71,-0.85,-1.13,0,*42
1508569258.24,22645,14.19,73838.3,1.71,-0.73,-1.01,0,*49
1508569259.48,22646,14.19,73834.5,1.71,-0.85,-1.21,0,*41
1508569260.71,22647,14.19,73828.5,1.73,-1.09,-1.59,0,*78
1508569261.96,22648,14.19,73826.5,1.73,-1.17,-1.91,0,*7C
1508569263.2,22649,14.19,73820.8,1.71,-1.35,-2.19,0,*7C
1508569264.4,22650,14.19,73822.5,1.71,-1.51,-2.27,0,*7B
1508569265.62,22651,14.19,73820.0,1.71,-1.71,-2.35,0,*7B
1508569266.87,22652,14.19,73820.0,1.71,-2.07,-2.39,0,*76
1508569268.1,22653,14.25,73826.5,1.71,-2.27,-2.11,0,*7F
1508569269.32,22654,14.25,73820.0,1.73,-2.19,-1.79,0,*7A
1508569270.53,22655,14.19,73826.0,1.73,-2.35,-1.59,0,*77
1508569271.77,22656,14.25,73832.8,1.71,-1.99,-1.33,0,*7F
1508569273.03,22657,14.25,73846.0,1.71,-1.87,-1.09,0,*78
1508569274.26,22658,14.19,73842.3,1.73,-1.79,-0.93,0,*46
1508569275.5,22659,14.25,73840.3,1.73,-1.47,-0.77,0,*40
1508569276.72,22660,14.25,73834.8,1.71,-1.59,-0.97,0,*49
1508569277.93,22661,14.25,73836.0,1.73,-1.21,-0.61,0,*4C
1508569279.15,22662,14.25,73838.3,1.71,-1.21,-0.73,0,*4E
1508569280.38,22663,14.25,73828.3,1.71,-1.13,-0.61,0,*4D
1508569281.59,22664,14.19,73828.8,1.71,-0.77,-0.57,0,*7C
1508569282.79,22665,14.25,73832.5,1.73,-0.61,-0.53,0,*7C
1508569283.99,22666,14.19,73830.5,1.71,-0.61,-0.77,0,*7B
1508569285.21,22667,14.25,73830.5,1.73,-0.57,-0.97,0,*73
1508569286.44,22668,14.25,73840.3,1.71,-0.61,-1.13,0,*46
1508569287.65,22669,14.25,73846.0,1.71,-0.77,-1.51,0,*46
1508569288.89,22670,14.25,73844.3,1.71,-1.43,-2.35,0,*79
1508569290.13,22671,14.19,73840.3,1.71,-1.63,-2.75,0,*7E
1508569291.37,22672,14.19,73836.5,1.71,-1.95,-3.15,0,*73
1508569292.58,22673,14.25,73820.0,1.71,-2.27,-3.39,0,*76
1508569293.81,22674,14.19,73816.8,1.71,-2.87,-3.59,0,*7D
1508569295.05,22675,14.25,73814.0,1.71,-3.39,-3.59,0,*78
1508569296.32,22676,14.19,73808.3,1.71,-3.71,-3.59,0,*77
1508569297.55,22677,14.19,73828.8,1.73,-3.95,-3.47,0,*71
1508569298.76,22678,14.19,73824.5,1.71,-4.37,-3.39,0,*7A
1508569299.97,22679,14.25,73826.0,1.71,-4.37,-3.15,0,*75
1508569301.18,22680,14.19,73822.0,1.71,-4.29,-3.03,0,*7B
1508569302.41,22681,14.25,73824.0,1.71,-4.25,-2.99,0,*74
1508569303.62,22682,14.25,73824.3,1.71,-4.17,-3.03,0,*74
1508569304.84,22683,14.19,73820.8,1.71,-4.13,-2.95,0,*7F
1508569306.06,22684,14.19,73812.0,1.71,-4.17,-2.95,0,*7C
1508569307.3,22685,14.25,73810.5,1.71,-4.05,-2.75,0,*70
1508569308.55,22686,14.25,73806.5,1.73,-3.95,-2.47,0,*7E
1508569309.77,22687,14.25,73802.0,1.71,-4.05,-2.39,0,*7A
1508569310.98,22688,14.19,73812.5,1.71,-4.17,-2.19,0,*74
1508569312.25,22689,14.19,73828.3,1.71,-4.01,-1.95,0,*75
1508569313.47,22690,14.19,73834.8,1.73,-3.79,-1.59,0,*77
1508569314.68,22691,14.25,73838.8,1.71,-3.35,-1.25,0,*77
1508569315.92,22692,14.19,73824.8,1.71,-3.11,-1.13,0,*77
1508569317.15,22693,14.19,73838.5,1.71,-2.83,-0.85,0,*42
1508569318.39,22694,14.19,73832.5,1.71,-2.47,-0.73,0,*44
1508569319.6,22695,14.25,73830.8,1.71,-2.19,-0.77,0,*4A
1508569320.84,22696,14.25,73820.5,1.71,-1.95,-0.73,0,*4A
1508569322.04,22697,14.19,73816.5,1.71,-1.59,-0.57,0,*4D
1508569323.25,22698,14.19,73828.0,1.71,-1.71,-0.65,0,*49
1508569324.47,22699,14.25,73840.0,1.71,-1.71,-0.57,0,*49
1508569325.73,22700,14.19,73836.3,1.73,-1.39,-0.23,0,*45
1508569326.93,22701,14.25,73832.8,1.71,-1.59,-0.57,0,*43
1508569328.14,22702,14.19,73828.8,1.71,-1.51,-0.57,0,*48
1508569329.35,22703,14.25,73836.8,1.73,-1.33,-0.45,0,*4C
1508569330.59,22704,14.25,73840.5,1.71,-1.13,-0.33,0,*4A
1508569331.81,22705,14.25,73842.8,1.71,-1.21,-0.49,0,*47
1508569333.05,22706,14.19,73838.0,1.71,-1.01,-0.37,0,*4F
1508569334.26,22707,14.25,73830.8,1.71,-0.77,-0.37,0,*7E
1508569335.44,22708,14.19,73824.0,1.69,-0.65,-0.33,0,*7F
1508569336.65,22709,14.25,73826.3,1.69,-0.85,-0.49,0,*7D
1508569337.85,22710,14.19,73826.3,1.69,-0.49,-0.27,0,*7D
1508569339.06,22711,14.25,73814.0,1.67,-0.53,-0.15,0,*78
1508569340.25,22712,14.19,73806.3,1.69,-0.37,-0.11,0,*73
1508569341.43,22713,14.25,73806.0,1.69,-0.37,-0.11,0,*72
1508569342.6,22714,14.25,73816.8,1.69,-0.29,-0.07,0,*4D
1508569343.8,22715,14.25,73814.3,1.69,-0.27,-0.03,0,*46
1508569344.99,22716,14.25,73808.5,1.69,-0.23,0.01,0,*6E
1508569346.18,22717,14.19,73788.3,1.69,-0.33,-0.15,0,*76
1508569347.38,22718,14.25,73798.3,1.69,-0.33,-0.27,0,*78
1508569348.57,22719,14.19,73826.8,1.69,-0.33,-0.23,0,*7D
1508569349.75,22720,14.25,73828.5,1.69,-0.11,-0.03,0,*45
1508569350.93,22721,14.25,73818.3,1.69,-0.15,-0.03,0,*40
1508569352.1,22722,14.19,73822.5,1.69,-0.11,0.01,0,*68
1508569353.29,22723,14.19,73828.8,1.67,-0.03,0.05,0,*50
1508569354.46,22724,14.25,73822.0,1.69,-0.11,0.01,0,*6E
1508569355.69,22725,14.19,73820.0,1.69,-0.27,-0.23,0,*77
1508569356.86,22726,14.19,73824.8,1.69,-0.11,0.01,0,*6C
1508569358.05,22727,14.19,73828.5,1.67,-0.07,0.05,0,*50
1508569359.23,22728,14.19,73816.5,1.69,-0.11,0.09,0,*6A
1508569360.42,22729,14.19,73824.8,1.67,-0.07,0.05,0,*5E
1508569361.58,22730,14.19,73834.0,1.69,0.01,0.09,0,*7F
1508569362.77,22731,14.19,73828.0,1.67,-0.07,-0.03,0,*7C
1508569363.97,22732,14.19,73824.3,1.67,-0.15,-0.07,0,*48
1508569365.16,22733,14.19,73828.3,1.67,-0.03,-0.07,0,*7E
1508569366.37,22734,14.19,73834.8,1.67,-0.37,-0.37,0,*7D
1508569367.55,22735,14.19,73836.0,1.69,-0.33,-0.37,0,*76
1508569368.75,22736,14.19,73834.5,1.67,-0.37,-0.37,0,*7F
1508569369.96,22737,14.25,73828.5,1.67,-0.29,-0.37,0,*71
1508569371.19,22738,14.25,73826.8,1.67,-0.27,-0.37,0,*70
1508569372.36,22739,14.25,73828.8,1.65,-0.49,-0.53,0,*79
1508569373.53,22740,14.19,73832.8,1.65,-0.61,-0.65,0,*78
1508569374.69,22741,14.25,73842.3,1.65,-0.61,-0.61,0,*7D
1508569375.87,22742,14.19,73826.8,1.61,-0.69,-0.65,0,*76
1508569377.05,22743,14.25,73828.3,1.61,-0.53,-0.45,0,*7C
1508569378.24,22744,14.25,73830.3,1.61,-0.57,-0.57,0,*7C
1508569379.45,22745,14.19,73824.5,1.59,-0.33,-0.33,0,*76
1508569380.65,22746,14.19,73826.0,1.59,-0.03,-0.03,0,*75
1508569381.9,22747,14.25,73830.3,1.59,-0.27,-0.27,0,*74
1508569383.11,22748,14.19,73826.8,1.59,-0.33,-0.33,0,*7B
1508569384.32,22749,14.25,73832.3,1.59,-0.45,-0.57,0,*79
1508569385.52,22750,14.19,73830.8,1.59,-0.03,-0.03,0,*72
1508569386.76,22751,14.19,73828.5,1.59,0.13,0.13,0,*73
1508569387.97,22752,14.19,73826.5,1.59,-0.15,-0.15,0,*70
1508569389.23,22753,14.25,73824.3,1.59,-0.27,-0.27,0,*71
1508569390.48,22754,14.19,73828.3,1.59,-0.23,-0.27,0,*72
1508569391.74,22755,14.19,73828.8,1.59,-0.27,-0.27,0,*77
1508569392.95,22756,14.19,73828.8,1.59,-0.37,-0.37,0,*74
1508569394.16,22757,14.19,73834.8,1.59,-0.45,-0.45,0,*75
1508569395.34,22758,14.25,73838.8,1.57,-0.49,-0.45,0,*78
1508569396.57,22759,14.19,73838.0,1.59,-0.33,-0.27,0,*7E
1508569397.74,22760,14.25,73840.5,1.57,-0.61,-0.57,0,*7A
1508569398.95,22761,14.25,73836.0,1.59,-0.69,-0.61,0,*78
1508569400.13,22762,14.25,73838.0,1.57,-0.45,-0.45,0,*7D
1508569401.31,22763,14.25,73842.3,1.57,-0.45,-0.37,0,*79
1508569402.49,22764,14.25,73846.3,1.57,-0.49,-0.57,0,*74
1508569403.66,22765,14.19,73848.0,1.57,-0.49,-0.61,0,*70
1508569404.9,22766,14.25,73842.8,1.55,-0.73,-1.01,0,*4F
1508569406.11,22767,14.19,73828.8,1.55,-0.65,-0.77,0,*79
1508569407.29,22768,14.19,73816.8,1.53,-0.53,-0.65,0,*76
1508569408.47,22769,14.19,73826.8,1.53,-0.61,-0.73,0,*71
1508569409.71,22770,14.19,73824.8,1.55,-0.77,-1.05,0,*48
1508569410.97,22771,14.25,73828.5,1.55,-0.89,-0.93,0,*76
1508569412.22,22772,14.25,73838.3,1.55,-0.93,-1.01,0,*44
1508569413.47,22773,14.19,73826.5,1.53,-1.39,-1.39,0,*79
1508569414.72,22774,14.25,73824.5,1.53,-1.39,-1.39,0,*7E
1508569415.97,22775,14.19,73824.8,1.55,-1.67,-1.39,0,*72
1508569417.18,22776,14.19,73818.8,1.53,-1.67,-1.39,0,*77
1508569418.37,22777,14.19,73816.8,1.49,-1.51,-1.33,0,*72
1508569419.58,22778,14.25,73814.3,1.51,-1.51,-1.33,0,*74
1508569420.82,22779,14.19,73810.5,1.51,-1.29,-1.09,0,*73
1508569422.06,22780,14.19,73810.5,1.51,-0.97,-0.81,0,*70
1508569423.27,22781,14.25,73812.0,1.49,-0.89,-0.81,0,*77
1508569424.48,22782,14.19,73812.3,1.51,-0.81,-0.77,0,*7C
1508569425.7,22783,14.19,73816.8,1.51,-0.81,-0.77,0,*7D
1508569426.93,22784,14.19,73802.0,1.51,-0.85,-0.81,0,*77
1508569428.19,22785,14.19,73816.8,1.51,-0.97,-0.93,0,*76
1508569429.44,22786,14.19,73826.0,1.51,-0.97,-0.93,0,*75
1508569430.67,22787,14.19,73836.5,1.53,-0.89,-0.89,0,*72
1508569431.9,22788,14.19,73822.8,1.53,-0.89,-0.93,0,*76
1508569433.13,22789,14.25,73820.8,1.53,-0.93,-1.01,0,*46
1508569434.35,22790,14.19,73818.8,1.53,-1.01,-1.17,0,*73
1508569435.56,22791,14.25,73824.0,1.53,-1.13,-1.25,0,*70
1508569436.78,22792,14.25,73822.0,1.53,-1.25,-1.35,0,*77
1508569438.03,22793,14.19,73826.8,1.53,-1.35,-1.39,0,*7B
1508569439.27,22794,14.19,73822.5,1.53,-1.35,-1.39,0,*7C
1508569440.54,22795,14.19,73820.8,1.55,-1.47,-1.39,0,*7E
1508569441.79,22796,14.19,73820.8,1.55,-1.63,-1.39,0,*7B
1508569443.03,22797,14.19,73838.3,1.55,-1.67,-1.35,0,*72
1508569444.22,22798,14.19,73842.3,1.53,-1.75,-1.17,0,*78
1508569445.46,22799,14.19,73840.5,1.55,-1.91,-1.17,0,*75
1508569446.74,22800,14.19,73838.5,1.55,-2.11,-1.35,0,*71
1508569447.98,22801,14.19,73832.5,1.55,-2.11,-1.25,0,*71
1508569449.19,22802,14.25,73842.8,1.55,-1.63,-0.73,0,*46
1508569450.41,22803,14.19,73846.3,1.55,-1.51,-0.73,0,*46
1508569451.65,22804,14.19,73846.3,1.55,-1.39,-0.65,0,*48
1508569452.85,22805,14.19,73838.8,1.53,-1.51,-0.89,0,*43
1508569454.09,22806,14.25,73838.0,1.55,-1.75,-1.13,0,*72
1508569455.33,22807,14.19,73820.5,1.55,-1.47,-0.81,0,*48
1508569456.54,22808,14.25,73822.8,1.55,-1.51,-0.73,0,*4D
1508569457.75,22809,14.19,73828.8,1.55,-1.29,-0.61,0,*40
1508569458.94,22810,14.19,73820.8,1.53,-1.25,-0.53,0,*43
1508569460.16,22811,14.19,73826.3,1.55,-1.17,-0.49,0,*4E
1508569461.41,22812,14.25,73830.3,1.55,-1.01,-0.49,0,*4A
1508569462.65,22813,14.19,73826.8,1.55,-1.05,-0.53,0,*44
1508569463.89,22814,14.19,73824.8,1.55,-0.89,-0.49,0,*7D
1508569465.1,22815,14.25,73828.0,1.53,-0.89,-0.61,0,*70
1508569466.3,22816,14.19,73824.8,1.53,-0.93,-0.65,0,*7C
1508569467.51,22817,14.25,73828.3,1.53,-1.01,-0.65,0,*47
1508569468.73,22818,14.25,73834.5,1.55,-0.93,-0.61,0,*70
1508569469.94,22819,14.19,73832.5,1.53,-0.89,-0.53,0,*7D
1508569471.13,22820,14.25,73838.8,1.53,-0.73,-0.49,0,*79
1508569472.31,22821,14.19,73842.0,1.53,-0.61,-0.29,0,*7D
1508569473.52,22822,14.25,73838.3,1.55,-0.53,-0.37,0,*76
1508569474.7,22823,14.19,73838.3,1.53,-0.77,-0.61,0,*74
1508569475.91,22824,14.19,73822.5,1.51,-0.77,-0.53,0,*70
1508569477.12,22825,14.19,73818.0,1.51,-0.77,-0.53,0,*71
1508569478.3,22826,14.19,73834.8,1.49,-0.81,-0.61,0,*73
1508569479.5,22827,14.19,73834.3,1.51,-0.77,-0.65,0,*76
1508569480.71,22828,14.19,73828.5,1.51,-0.65,-0.65,0,*7A
1508569481.92,22829,14.25,73826.8,1.51,-0.57,-0.69,0,*76
1508569483.11,22830,14.19,73816.0,1.49,-0.81,-0.81,0,*7A
1508569484.32,22831,14.19,73798.0,1.51,-0.65,-0.77,0,*71
1508569485.49,22832,14.19,73798.8,1.49,-0.33,-0.61,0,*7F
1508569486.72,22833,14.19,73818.5,1.51,-0.23,-0.53,0,*77
1508569487.93,22834,14.19,73814.8,1.51,-0.45,-0.69,0,*79
1508569489.14,22835,14.25,73820.5,1.51,-0.53,-0.77,0,*70
1508569490.37,22836,14.19,73812.5,1.51,-0.65,-0.93,0,*7C
1508569491.6,22837,14.19,73822.5,1.51,-0.65,-0.85,0,*7A
1508569492.83,22838,14.25,73832.0,1.51,-0.69,-0.85,0,*79
1508569494.07,22839,14.19,73830.3,1.51,-0.85,-1.29,0,*4D
1508569495.27,22840,14.19,73830.5,1.53,-1.17,-1.51,0,*74
1508569496.49,22841,14.19,73822.3,1.53,-1.47,-1.79,0,*7A
1508569497.76,22842,14.19,73818.0,1.51,-1.83,-2.07,0,*79
1508569499.02,22843,14.19,73810.5,1.51,-1.95,-1.95,0,*77
1508569500.27,22844,14.19,73798.0,1.51,-2.19,-1.83,0,*70
1508569501.45,22845,14.19,73820.5,1.49,-2.19,-1.55,0,*73
1508569502.7,22846,14.19,73814.5,1.51,-2.27,-1.39,0,*7E
1508569503.94,22847,14.25,73808.3,1.51,-2.19,-1.05,0,*7D
1508569505.17,22848,14.19,73810.3,1.51,-2.15,-0.85,0,*47
1508569506.41,22849,14.19,73810.8,1.51,-1.83,-0.57,0,*45
1508569507.65,22850,14.19,73814.5,1.51,-1.95,-0.69,0,*47
1508569508.86,22851,14.25,73820.3,1.51,-1.63,-0.69,0,*4F
1508569510.1,22852,14.19,73820.5,1.51,-1.39,-0.57,0,*4E
1508569511.32,22853,14.19,73816.0,1.51,-1.29,-0.53,0,*4A
1508569512.56,22854,14.25,73822.8,1.51,-0.97,-0.33,0,*7F
1508569513.79,22855,14.19,73822.5,1.51,-0.93,-0.45,0,*7B
1508569514.98,22856,14.19,73826.0,1.53,-0.73,-0.49,0,*78
1508569516.17,22857,14.19,73824.0,1.53,-0.65,-0.49,0,*7E
1508569517.35,22858,14.25,73830.0,1.53,-0.73,-0.77,0,*7B
1508569518.54,22859,14.19,73832.0,1.53,-0.73,-0.77,0,*7A
1508569519.73,22860,14.19,73832.8,1.53,-0.73,-0.77,0,*70
1508569520.99,22861,14.19,73834.0,1.55,-0.89,-0.89,0,*73
1508569522.19,22862,14.19,73836.0,1.53,-0.93,-0.81,0,*75
1508569523.41,22863,14.19,73838.0,1.55,-0.81,-0.81,0,*71
1508569524.64,22864,14.19,73838.8,1.53,-0.93,-1.01,0,*4A
1508569525.9,22865,14.19,73836.0,1.51,-1.09,-1.09,0,*73
1508569527.1,22866,14.19,73836.5,1.53,-1.29,-1.17,0,*7F
1508569528.31,22867,14.19,73832.8,1.53,-1.39,-1.25,0,*7E
1508569529.56,22868,14.19,73834.5,1.51,-1.79,-1.39,0,*7A
1508569530.83,22869,14.19,73832.0,1.51,-1.91,-1.39,0,*7D
1508569532.09,22870,14.19,73828.8,1.51,-1.91,-1.39,0,*75
1508569533.34,22871,14.19,73830.8,1.49,-1.95,-1.43,0,*74
1508569534.58,22872,14.19,73838.8,1.49,-1.83,-1.35,0,*71
1508569535.79,22873,14.25,73832.5,1.51,-1.79,-1.33,0,*7A
1508569537.01,22874,14.19,73830.0,1.49,-1.75,-1.43,0,*7F
1508569538.26,22875,14.19,73828.5,1.47,-1.21,-1.01,0,*77
1508569539.51,22876,14.25,73844.3,1.47,-1.09,-0.89,0,*4F
1508569540.75,22877,14.19,73840.8,1.47,-0.97,-0.81,0,*70
1508569541.98,22878,14.19,73840.5,1.45,-0.89,-0.85,0,*76
1508569543.24,22879,14.25,73836.0,1.47,-0.85,-0.85,0,*79
1508569544.48,22880,14.19,73824.3,1.47,-0.89,-0.81,0,*77
1508569545.73,22881,14.19,73828.5,1.47,-0.97,-0.89,0,*71
1508569546.95,22882,14.19,73824.0,1.45,-1.25,-0.93,0,*43
1508569548.19,22883,14.19,73812.5,1.47,-1.21,-0.85,0,*43
1508569549.39,22884,14.19,73810.8,1.45,-0.89,-0.61,0,*7F
1508569550.61,22885,14.19,73830.5,1.47,-0.81,-0.45,0,*72
1508569551.84,22886,14.19,73832.8,1.47,-0.69,-0.27,0,*73
1508569553.08,22887,14.19,73842.0,1.47,-0.69,-0.27,0,*72
1508569554.31,22888,14.19,73838.8,1.47,-0.89,-0.57,0,*74
1508569555.53,22889,14.19,73836.3,1.45,-1.01,-0.73,0,*40
1508569556.77,22890,14.19,73836.8,1.47,-0.97,-0.73,0,*74
1508569557.98,22891,14.19,73838.3,1.49,-0.89,-0.73,0,*74
1508569559.19,22892,14.25,73842.0,1.49,-0.89,-0.73,0,*77
1508569560.43,22893,14.19,73840.8,1.47,-0.85,-0.81,0,*79
1508569561.64,22894,14.25,73844.3,1.45,-0.89,-0.77,0,*79
1508569562.9,22895,14.19,73840.0,1.47,-0.89,-0.85,0,*77
1508569564.15,22896,14.19,73842.5,1.47,-0.89,-0.85,0,*74
1508569565.39,22897,14.19,73842.8,1.45,-0.89,-0.85,0,*77
1508569566.62,22898,14.25,73844.0,1.45,-0.89,-0.93,0,*7F
1508569567.85,22899,14.19,73836.5,1.45,-0.89,-0.85,0,*79
1508569569.06,22900,14.19,73834.5,1.47,-0.81,-0.81,0,*76
1508569570.27,22901,14.19,73834.8,1.45,-0.77,-0.85,0,*78
1508569571.48,22902,14.25,73836.0,1.45,-0.77,-0.93,0,*7C
1508569572.7,22903,14.19,73836.0,1.45,-1.01,-1.25,0,*71
1508569573.91,22904,14.19,73832.3,1.45,-1.01,-1.25,0,*76
1508569575.14,22905,14.19,73838.5,1.45,-1.05,-1.29,0,*7F
1508569576.36,22906,14.19,73832.3,1.45,-1.05,-1.29,0,*7C
1508569577.61,22907,14.25,73830.0,1.47,-1.25,-1.43,0,*71
1508569578.85,22908,14.19,73834.0,1.45,-1.35,-1.39,0,*70
1508569580.04,22909,14.19,73842.3,1.45,-1.51,-1.59,0,*75
1508569581.23,22910,14.19,73848.0,1.45,-1.63,-1.63,0,*75
1508569582.43,22911,14.19,73844.5,1.45,-1.71,-1.63,0,*77
1508569583.65,22912,14.19,73842.5,1.45,-1.51,-1.39,0,*79
1508569584.87,22913,14.19,73834.8,1.45,-1.51,-1.39,0,*78
1508569586.14,22914,14.19,73832.8,1.43,-1.47,-1.39,0,*7E
1508569587.42,22915,14.19,73834.8,1.43,-1.39,-1.35,0,*7A
1508569588.66,22916,14.19,73836.0,1.43,-1.51,-1.39,0,*7B
1508569589.87,22917,14.19,73838.5,1.43,-1.51,-1.29,0,*7B
1508569591.14,22918,14.19,73834.3,1.43,-1.47,-1.13,0,*7A
1508569592.41,22919,14.19,73836.0,1.43,-1.47,-1.05,0,*7C
1508569593.6,22920,14.19,73836.5,1.45,-1.51,-1.17,0,*74
1508569594.82,22921,14.19,73828.0,1.45,-1.79,-1.47,0,*7A
1508569596.04,22922,14.19,73832.0,1.45,-1.91,-1.75,0,*7E
1508569597.28,22923,14.19,73834.0,1.43,-2.15,-1.99,0,*74
1508569598.52,22924,14.19,73832.8,1.43,-2.27,-1.91,0,*7A
1508569599.74,22925,14.19,73832.0,1.43,-2.23,-1.79,0,*79
1508569600.99,22926,14.25,73834.0,1.43,-2.55,-1.79,0,*7B
1508569602.23,22927,14.19,73830.8,1.43,-2.51,-1.51,0,*74
1508569603.5,22928,14.19,73838.0,1.43,-2.51,-1.39,0,*75
1508569604.72,22929,14.19,73838.8,1.43,-2.23,-1.17,0,*7D
1508569605.95,22930,14.19,73824.8,1.39,-1.91,-0.89,0,*44
1508569607.17,22931,14.19,73830.5,1.43,-1.63,-0.73,0,*40
1508569608.38,22932,14.19,73834.5,1.39,-1.43,-0.81,0,*41
1508569609.59,22933,14.19,73834.0,1.39,-0.97,-0.65,0,*72
1508569610.8,22934,14.19,73828.3,1.39,-0.93,-0.69,0,*7D
1508569612.01,22935,14.19,73834.8,1.39,-0.89,-0.65,0,*7B
1508569613.21,22936,14.19,73836.8,1.37,-0.77,-0.53,0,*72
1508569614.4,22937,14.19,73834.5,1.39,-0.65,-0.53,0,*7E
1508569615.59,22938,14.19,73836.8,1.39,-0.45,-0.41,0,*70
1508569616.78,22939,14.19,73838.0,1.39,-0.53,-0.41,0,*76
1508569617.98,22940,14.19,73842.3,1.39,-0.41,-0.41,0,*7B
1508569619.17,22941,14.19,73838.3,1.39,-0.45,-0.41,0,*7E
1508569620.35,22942,14.19,73832.8,1.39,-0.33,-0.29,0,*72
1508569621.53,22943,14.19,73836.0,1.39,-0.69,-0.65,0,*74
1508569622.74,22944,14.19,73834.5,1.35,-0.85,-0.81,0,*77
1508569623.94,22945,14.19,73830.8,1.37,-0.65,-0.57,0,*71
1508569625.15,22946,14.19,73828.0,1.37,-0.57,-0.53,0,*77
1508569626.33,22947,14.19,73826.0,1.35,-0.49,-0.37,0,*79
1508569627.54,22948,14.19,73836.8,1.37,-0.53,-0.41,0,*7E
1508569628.72,22949,14.19,73832.3,1.35,-0.49,-0.45,0,*72
1508569629.9,22950,14.19,73838.0,1.35,-0.49,-0.45,0,*7A
1508569631.08,22951,14.19,73838.0,1.35,-0.33,-0.37,0,*73
1508569632.26,22952,14.19,73834.0,1.35,-0.37,-0.37,0,*74
1508569633.44,22953,14.19,73826.8,1.35,-0.49,-0.45,0,*79
1508569634.62,22954,14.19,73834.3,1.35,-0.57,-0.49,0,*7D
1508569635.81,22955,14.19,73828.8,1.35,-0.57,-0.49,0,*7C
1508569637.01,22956,14.19,73826.8,1.33,-0.65,-0.65,0,*76
1508569638.19,22957,14.19,73834.8,1.35,-0.57,-0.57,0,*71
1508569639.37,22958,14.19,73834.5,1.35,-0.45,-0.49,0,*72
1508569640.55,22959,14.19,73832.8,1.35,-0.49,-0.37,0,*76
1508569641.73,22960,14.19,73832.8,1.35,-0.49,-0.45,0,*79
1508569642.91,22961,14.19,73830.0,1.35,-0.69,-0.69,0,*74
1508569644.09,22962,14.19,73830.8,1.35,-0.81,-0.81,0,*77
1508569645.32,22963,14.19,73826.8,1.31,-0.89,-0.89,0,*72
1508569646.57,22964,14.19,73820.5,1.33,-0.97,-0.97,0,*77
1508569647.82,22965,14.25,73830.5,1.31,-1.05,-1.05,0,*74
1508569649.06,22966,14.25,73832.3,1.33,-0.85,-0.73,0,*7C
1508569650.24,22967,14.19,73838.0,1.31,-0.49,-0.53,0,*7D
1508569651.45,22968,14.19,73838.3,1.29,-0.53,-0.33,0,*76
1508569652.68,22969,14.19,73838.8,1.31,-0.27,-0.23,0,*7C
1508569653.88,22970,14.19,73838.3,1.31,-0.29,-0.23,0,*7A
1508569655.05,22971,14.19,73838.8,1.31,-0.29,-0.29,0,*71
1508569656.25,22972,14.25,73844.0,1.31,-0.41,-0.41,0,*72
1508569657.44,22973,14.19,73844.0,1.31,-0.41,-0.37,0,*72
1508569658.61,22974,14.19,73846.0,1.31,-0.29,-0.29,0,*74
1508569659.79,22975,14.19,73844.3,1.31,-0.29,-0.29,0,*75
1508569660.98,22976,14.19,73840.5,1.31,-0.41,-0.49,0,*7E
1508569662.17,22977,14.19,73840.5,1.31,-0.41,-0.41,0,*77
1508569663.41,22978,14.19,73834.0,1.31,-0.27,-0.27,0,*78
1508569664.63,22979,14.19,73830.5,1.33,-0.27,-0.29,0,*75
1508569665.88,22980,14.25,73840.5,1.33,-0.23,-0.23,0,*7D
1508569667.11,22981,14.19,73828.5,1.31,-0.23,-0.23,0,*7E
1508569668.34,22982,14.19,73832.5,1.31,-0.27,-0.23,0,*79
1508569669.53,22983,14.19,73840.0,1.31,-0.11,-0.03,0,*4F
1508569670.72,22984,14.25,73842.0,1.33,-0.11,0.01,0,*65
1508569671.95,22985,14.19,73836.8,1.33,-0.29,-0.23,0,*72
1508569673.15,22986,14.19,73836.3,1.33,-0.37,-0.29,0,*74
1508569674.4,22987,14.19,73838.8,1.33,-0.23,-0.23,0,*7A
1508569675.61,22988,14.19,73842.3,1.33,-0.41,-0.29,0,*7B
1508569676.86,22989,14.19,73846.0,1.33,-0.27,-0.23,0,*70
1508569678.11,22990,14.19,73850.0,1.33,-0.23,-0.23,0,*7C
1508569679.31,22991,14.19,73848.5,1.33,-0.29,-0.29,0,*7D
1508569680.5,22992,14.19,73842.5,1.31,-0.29,-0.37,0,*73
1508569681.71,22993,14.19,73836.0,1.33,-0.41,-0.49,0,*77
1508569682.89,22994,14.19,73836.8,1.31,-0.53,-0.49,0,*71
1508569684.07,22995,14.19,73832.0,1.31,-0.61,-0.61,0,*7B
1508569685.25,22996,14.19,73832.5,1.31,-0.49,-0.53,0,*73
1508569686.48,22997,14.19,73838.5,1.31,-0.27,-0.27,0,*79
1508569687.68,22998,14.19,73836.0,1.31,-0.29,-0.27,0,*78
1508569688.87,22999,14.19,73840.0,1.31,-0.15,-0.15,0,*77
1508569690.06,23000,14.19,73848.8,1.31,-0.11,-0.11,0,*7F
1508569691.25,23001,14.19,73854.0,1.31,-0.11,-0.11,0,*7E
1508569692.47,23002,14.25,73854.8,1.33,-0.11,-0.11,0,*7F
1508569693.72,23003,14.19,73852.0,1.33,-0.27,-0.23,0,*7A
1508569694.97,23004,14.19,73850.5,1.33,-0.27,-0.23,0,*7D
1508569696.2,23005,14.19,73848.8,1.33,-0.15,-0.23,0,*7D
1508569697.4,23006,14.19,73848.8,1.33,-0.29,-0.29,0,*7B
1508569698.6,23007,14.19,73844.8,1.33,-0.29,-0.37,0,*75
1508569699.79,23008,14.19,73854.8,1.31,-0.29,-0.37,0,*78
1508569700.96,23009,14.19,73852.3,1.31,-0.29,-0.29,0,*76
1508569702.15,23010,14.19,73848.3,1.31,-0.29,-0.37,0,*71
1508569703.34,23011,14.19,73848.8,1.31,-0.41,-0.41,0,*7F
1508569704.55,23012,14.19,73852.8,1.33,-0.41,-0.49,0,*76
1508569705.73,23013,14.19,73848.0,1.31,-0.65,-0.61,0,*79
1508569706.91,23014,14.19,73844.0,1.31,-0.65,-0.65,0,*7A
1508569708.1,23015,14.19,73846.5,1.31,-0.41,-0.41,0,*7B
1508569709.29,23016,14.19,73846.3,1.31,-0.41,-0.37,0,*79
1508569710.49,23017,14.19,73840.5,1.31,-0.41,-0.41,0,*79
1508569711.69,23018,14.19,73840.5,1.29,-0.45,-0.45,0,*7F